Home > Weather > Durham > Past weeks

Flag for United Kingdom Past Weather in Durham, England, United Kingdom — Yesterday and Last 2 Weeks

Now
57 °F

Fog.


Feels Like: 57 °F
Forecast: 52 / 66 °F
Wind: No wind

Location: Newcastle

Current Time: Aug 26, 2016 at 2:42:01 AM

Latest Report: Aug 26, 2016 at 2:20 AM


Visibility: 4 mi

Pressure: 29.89 "Hg

Humidity: 100%

Dew Point: 57 °F

Location of DurhamLocation

Past Weather in Durham — Graph

°F

Durham Temperature Yesterday

Maximum temperature yesterday: 59 °F (at 11:50 AM)
Minimum temperature yesterday: 55 °F (at 12:20 AM)
Average temperature yesterday: 57 °F

High & Low Weather Summary for the Past Weeks

 TemperatureHumidityPressure
High75 °F (Aug 23, 3:50 PM)100% (Aug 11, 1:50 AM)30.33 "Hg (Aug 11, 1:50 AM)
Low46 °F (Aug 17, 1:50 AM)50% (Aug 24, 12:50 PM)29.30 "Hg (Aug 20, 5:20 PM)
Average60 °F87%29.98 "Hg
* Reported Aug 11 1:50 AM — Aug 26 1:20 AM, Durham, Weather by CustomWeather, © 2016

Note: Actual official high and low records may vary slightly from our data, if they occured in-between our weather recording intervals... More about our weather records

Advertising

Durham Weather History for the Previous 24 Hours

Scroll right to see more
 ConditionsComfort  
Time TempWeatherWind HumidityBarometerVisibility
1:20 AM
Fri, Aug 26
57 °FPassing clouds.1 mph100%29.89 "Hg5 mi
12:50 AM59 °FFog.No wind100%29.89 "Hg1 mi
12:20 AM59 °FFog.No wind94%29.92 "Hg1 mi
11:50 PM
Thu, Aug 25
59 °FFog.No wind100%29.92 "Hg1 mi
11:20 PM59 °FFog.No wind94%29.92 "Hg1 mi
10:50 PM59 °FFog.1 mph94%29.92 "Hg1 mi
10:20 PM59 °FFog.No wind94%29.95 "Hg1 mi
9:50 PM59 °FFog.No wind94%29.95 "Hg1 mi
9:20 PM57 °FFog.No wind100%29.95 "Hg1 mi
8:50 PM57 °FFog.3 mph100%29.95 "Hg2 mi
8:20 PM59 °FFog.1 mph94%29.95 "Hg3 mi
7:50 PM57 °FFog.3 mph100%29.95 "Hg3 mi
7:20 PM57 °FFog.5 mph100%29.95 "Hg3 mi
6:50 PM59 °FFog.2 mph94%29.98 "Hg3 mi
6:20 PM59 °FFog.2 mph94%29.98 "Hg3 mi
5:50 PM59 °FFog.3 mph94%29.98 "Hg2 mi
5:20 PM59 °FFog.5 mph94%29.98 "Hg1 mi
4:50 PM59 °FFog.3 mph94%30.01 "Hg1 mi
4:20 PM59 °FFog.5 mph94%30.01 "Hg2 mi
3:50 PM59 °FBroken clouds.5 mph94%30.01 "Hg4 mi
3:20 PM59 °FBroken clouds.6 mph94%30.01 "Hg4 mi
2:50 PM59 °FBroken clouds.5 mph94%30.04 "Hg4 mi
2:20 PM59 °FMore clouds than sun.5 mph94%30.04 "Hg4 mi
1:50 PM59 °FLow clouds.5 mph94%30.04 "Hg4 mi
1:20 PM59 °FLow clouds.5 mph94%30.04 "HgN/A
12:50 PM59 °FLow clouds.5 mph100%30.04 "Hg6 mi
12:20 PM59 °FPartly sunny.5 mph100%30.04 "Hg6 mi
11:50 AM59 °FBroken clouds.3 mph100%30.04 "Hg5 mi
10:50 AM57 °FLight rain. Fog.3 mph100%30.07 "Hg2 mi
10:20 AM57 °FLight rain. Fog.3 mph100%30.07 "Hg2 mi
9:50 AM57 °FLight rain. Fog.3 mph100%30.07 "Hg2 mi
9:20 AM57 °FLight rain. Fog.5 mph100%30.07 "Hg2 mi
8:50 AM55 °FLight rain. Fog.5 mph100%30.07 "Hg2 mi
8:20 AM55 °FDrizzle. Fog.3 mph100%30.09 "Hg2 mi
7:50 AM55 °FDrizzle. Fog.3 mph100%30.09 "Hg2 mi
7:20 AM55 °FFog.5 mph100%30.09 "Hg1 mi
6:50 AM55 °FFog.6 mph100%30.09 "Hg3 mi
6:20 AM55 °FFog.5 mph100%30.09 "Hg2 mi
5:50 AM55 °FFog.5 mph100%30.07 "Hg3 mi
5:20 AM55 °FFog.3 mph100%30.07 "Hg3 mi
4:50 AM55 °FFog.3 mph100%30.09 "Hg1 mi
4:20 AM55 °FFog.No wind100%30.09 "Hg1 mi
3:50 AM55 °FFog.No wind100%30.09 "Hg1 mi
3:20 AM55 °FLight rain. Fog.2 mph100%30.09 "Hg1 mi
2:50 AM55 °FFog.2 mph100%30.12 "Hg2 mi
2:20 AM55 °FFog.3 mph100%30.12 "Hg2 mi
Weather by CustomWeather, © 2016

See weather overviewHow to use our weather pages